Location: FWAS Thompsen Ranch
(33.4402°N, 97.5607°W)
Time: 05:20:19
(UTC-06:00)

Tiangong 2 - Visible Passes

Search period start: 21 February 2018 00:00
Search period end: 03 March 2018 00:00
Orbit: 384 x 388 km, 42.8° (Epoch: 21 February)

Date Brightness Start Highest point End Pass type
(mag) Time Alt. Az. Time Alt. Az. Time Alt. Az.
21 Feb 1.1 19:34:28 10° NW 19:37:36 59° NNE 19:38:03 51° ENE visible
22 Feb 3.1 20:12:26 10° WNW 20:14:34 28° WSW 20:14:34 28° WSW visible
23 Feb 1.3 19:13:14 10° WNW 19:16:24 67° SSW 19:18:56 15° SE visible
24 Feb 3.9 19:51:56 10° W 19:53:55 15° SW 19:55:45 11° S visible
25 Feb 2.9 18:52:13 10° W 18:55:04 30° SW 18:57:54 10° SSE visible
